Location: Newark
(31.3428°N, 34.3253°E)
Time: 06:21:02
(UTC+00:00)

N. Korean satellite - Visible Passes

Search period start: 20 January 2020 00:00
Search period end: 30 January 2020 00:00
Orbit: 454 x 508 km, 97.2° (Epoch: 19 January)

Date Brightness Start Highest point End Pass type
(mag) Time Alt. Az. Time Alt. Az. Time Alt. Az.
20 Jan 7.2 03:14:23 10° NNE 03:17:53 57° E 03:21:25 10° S visible
21 Jan 9.0 02:49:26 10° NE 02:52:21 24° E 02:55:19 10° SSE visible
22 Jan 10.1 02:25:55 10° E 02:26:46 11° E 02:27:36 10° ESE visible
22 Jan 7.3 03:57:00 10° NNW 04:00:10 30° WNW 04:03:22 10° SW visible
23 Jan 6.4 03:31:11 10° N 03:34:45 76° WNW 03:38:22 10° SSW visible
23 Jan 9.6 15:35:47 10° SW 15:38:14 19° W 15:40:43 10° NW visible
24 Jan 7.9 03:05:52 10° NNE 03:09:17 42° E 03:12:44 10° S visible
25 Jan 9.5 02:41:08 10° NE 02:43:43 19° E 02:46:20 10° SE visible
26 Jan 7.0 03:48:11 10° N 03:51:35 41° WNW 03:55:01 10° SSW visible
26 Jan 10.3 15:54:26 10° WSW 15:55:11 11° W 15:55:56 10° W visible
27 Jan 6.6 03:22:32 10° NNE 03:26:09 80° ESE 03:29:48 10° S visible
28 Jan 8.5 02:57:21 10° NNE 03:00:39 32° E 03:03:57 10° SSE visible
29 Jan 9.8 02:32:58 10° ENE 02:35:04 15° E 02:37:09 10° SE visible
29 Jan 7.7 04:05:25 10° NNW 04:08:22 24° WNW 04:11:20 10° SW visible
